Flag for Germany Weather past 2 weeks in Beckum, North Rhine-Westphalia, Germany

36 °F

Passing clouds.

Feels Like: 29 °F
Forecast: 37 / 42 °F
Wind: 9 mph from South

Location: Paderborn / Lippstadt

Current Time: Nov 27, 2015 at 4:07:05 AM

Latest Report: Nov 27, 2015 at 3:20 AM

Visibility: N/A

Pressure: 30.12 "Hg

Humidity: 87%

Dew point: 32 °F

Location of BeckumLocation

Historic Weather in Beckum — Graph


Beckum temperature yesterday

Maximum temperature yesterday: 39 °F (at 12:20 PM)
Minimum temperature yesterday: 36 °F (at 5:50 AM)
Average temperature yesterday: 37 °F

Past Weeks' High & Low Weather Summary

High57 °F (Nov 17, 1:20 PM)100% (Nov 15, 3:20 PM)30.30 "Hg (Nov 15, 3:20 PM)
Low30 °F (Nov 22, 9:50 PM)56% (Nov 24, 10:50 AM)29.36 "Hg (Nov 21, 5:20 AM)
Average44 °F83%29.88 "Hg
* Reported Nov 12 2:20 AM — Nov 27 2:50 AM, Beckum, Weather by CustomWeather, © 2015

Note: Actual official high and low records may vary slightly from our data, if they occured in-between our weather recording intervals... More about our weather records


Beckum weather history for previous 24 hours

Time TempWeatherWind HumidityBarometerVisibility
2:50 AM
Fri, Nov 27
36 °FPassing clouds.8 mph93%30.15 "HgN/A
2:20 AM36 °FPassing clouds.10 mph93%30.15 "HgN/A
1:50 AM36 °FPassing clouds.9 mph93%30.15 "HgN/A
1:20 AM36 °FPassing clouds.10 mph93%30.15 "HgN/A
12:50 AM36 °FPassing clouds.9 mph93%30.15 "HgN/A
12:20 AM36 °FPassing clouds.9 mph93%30.15 "HgN/A
11:50 PM
Thu, Nov 26
36 °FPassing clouds.9 mph93%30.15 "HgN/A
10:50 PM36 °FPassing clouds.8 mph93%30.15 "HgN/A
10:20 PM36 °FPassing clouds.8 mph93%30.15 "HgN/A
9:50 PM37 °FPassing clouds.6 mph87%30.15 "HgN/A
9:20 PM37 °FPassing clouds.3 mph93%30.15 "HgN/A
8:50 PM37 °FPassing clouds.1 mph87%30.15 "HgN/A
8:20 PM37 °FPassing clouds.6 mph93%30.15 "HgN/A
7:50 PM39 °FPartly cloudy.6 mph87%30.12 "HgN/A
7:20 PM39 °FPartly cloudy.6 mph87%30.12 "HgN/A
6:50 PM37 °FPassing clouds.7 mph93%30.12 "HgN/A
6:20 PM37 °FPassing clouds.6 mph93%30.09 "HgN/A
5:50 PM37 °FPassing clouds.7 mph93%30.09 "HgN/A
5:20 PM37 °FPassing clouds.5 mph93%30.09 "HgN/A
4:50 PM37 °FPassing clouds.1 mph93%30.09 "HgN/A
4:20 PM37 °FScattered clouds.1 mph93%30.07 "HgN/A
3:50 PM39 °FScattered clouds.2 mph87%30.07 "HgN/A
3:20 PM39 °FScattered clouds.2 mph87%30.07 "HgN/A
2:50 PM39 °FScattered clouds.3 mph87%30.04 "HgN/A
2:20 PM39 °FScattered clouds.5 mph93%30.04 "HgN/A
1:50 PM39 °FScattered clouds.5 mph87%30.04 "Hg4 mi
1:20 PM39 °FPartly sunny.6 mph93%30.04 "Hg4 mi
12:50 PM39 °FPartly sunny.6 mph93%30.01 "Hg4 mi
12:20 PM39 °FPartly sunny.6 mph93%30.01 "Hg3 mi
11:50 AM37 °FPartly sunny.5 mph100%30.01 "Hg4 mi
11:20 AM37 °FPartly sunny.5 mph100%30.01 "Hg4 mi
10:50 AM37 °FFog.5 mph93%29.98 "Hg3 mi
10:20 AM37 °FFog.5 mph100%29.98 "Hg2 mi
9:50 AM37 °FFog.3 mph93%29.95 "Hg2 mi
9:20 AM36 °FLight rain. Fog.5 mph100%29.95 "Hg2 mi
8:50 AM36 °FFog.6 mph100%29.95 "Hg1 mi
8:20 AM36 °FFog.6 mph100%29.92 "Hg1 mi
7:50 AM36 °FFog.6 mph100%29.89 "Hg1 mi
7:20 AM36 °FFog.5 mph100%29.89 "Hg1 mi
6:50 AM36 °FFog.6 mph100%29.86 "Hg1 mi
6:20 AM36 °FDrizzle. Fog.5 mph100%29.86 "Hg1 mi
5:50 AM36 °FDrizzle. Fog.6 mph100%29.83 "Hg1 mi
5:20 AM37 °FDrizzle. Fog.5 mph93%29.83 "Hg2 mi
4:50 AM37 °FDrizzle. Fog.6 mph93%29.83 "Hg2 mi
Weather by CustomWeather, © 2015

See weather overviewHow to use our weather pages